Погода в Ивановке

Украина / Кировоградская область     48°11′34″N   32°52′06″E
В апреле 2022 года жителям России запретили посещать сайт meteo.paraplan.net по решению Генеральной прокуратуры. Аудитория сайта уменьшилась в 10 раз. Владельцы сайта не видят смысла в поддержке погодного сервера в таких условиях. Сайт будет закрыт в октябре.
темп.,
°C
ветер,
м/с
пор.,
м/с
влажн.,
%
обл.,
%
осадки,
мм/ч
давл.,
гПа
погр.,
м
5 октября, ср
ср500:00+9зюз497981 0.0 1020327
03:00+9зюз4885100 0.0 1021238
06:00+8з51089100 0.0 1022312
09:00+10зсз58793 0.0 1023437
12:00+15зсз68561 0.0 10241298
15:00+16зсз6745100 0.0 10241606
18:00+14зсз4755100 0.0 1025303
21:00+12зсз3466100 0.0 102682
6 октября, чт
чт600:00+10зсз3373100 0.0 102747
03:00+10з2272100 0.0 102728
06:00+10з2274100 0.0 102730
09:00+12зюз3567100 0.0 1027208
12:00+16зюз454872 0.0 1027683
15:00+19з453796 0.0 10261131
18:00+16зюз334671 0.0 102528
21:00+14зюз3352100 0.0 102642
7 октября, пт
пт700:00+12з3456100 0.0 102760
03:00+11сз3568100 0.0 102678
06:00+10ссз358363 0.0 102672
09:00+13с477755 0.0 1027275
12:00+18ссв676280 0.0 1027844
15:00+18ссв6754100 0.0 10261023
18:00+15ссв485994 0.0 1026222
21:00+12ссв4869100 0.0 1027169
8 октября, сб
сб800:00+11св497483 0.0 1027174
03:00+9св48780 0.0 1026144
06:00+9св47820 0.0 1026127
09:00+12всв477030 0.0 1025239
12:00+17в455829 0.0 1023850
15:00+19в45506 0.0 10211251
18:00+17всв34605 0.0 102049
21:00+14всв356959 0.0 102085
9 октября, вс
вс900:00+13в337361 0.0 102044
03:00+12всв2271100 0.0 101910
06:00+11св22738 0.0 101912
09:00+14ссв236398 0.0 1019147
12:00+18ссз4549100 0.0 1019807
15:00+18ссз6751100 0.0 10191280
18:00+15с71161100 0.0 1021922
21:00+11с713800 0.0 1023577